Location: Guadanolo
(41.9167°N, 12.9333°E)
Time: 11:57:03
(UTC+00:00)

SL-08 RB Rocket - Pass Details

Date: 16 September 2019
Orbit: 646 x 685 km, 97.9° (Epoch: 19 October)

Event Time Altitude Azimuth Distance (km) Brightness Sun altitude
Exits shadow 19:31:33 74° 189° (S) 714 3.7 -24.8°
Maximum altitude 19:31:56 84° 256° (WSW) 694 3.7 -24.8°
Drops below altitude 10° 19:36:39 10° 346° (NNW) 2,140 6.8 -25.6°
Sets 19:38:54 0° 347° (NNW) 3,060 7.7 -26.0°
